Location: Champignolles
(47.0543°N, 4.5663°E)
Time: 08:02:36
(UTC+00:00)

ISS - Pass Details

Date: 06 December 2021
Orbit: 413 x 422 km, 51.6° (Epoch: 27 January)

Event Time Altitude Azimuth Distance (km) Brightness Sun altitude
Rises 16:47:54 0° 295° (WNW) 2,389 0.8 -9.1°
Reaches altitude 10° 16:50:01 10° 294° (WNW) 1,519 -0.3 -9.4°
Maximum altitude 16:53:26 82° 208° (SSW) 433 -3.7 -10.0°
Drops below altitude 10° 16:56:49 10° 120° (ESE) 1,505 -1.3 -10.5°
Enters shadow 16:57:43 - 120° (ESE) 1,876 -0.8 -10.6°
